Location: ??????????
(48.4699°N, 37.9573°E)
Time: 13:15:42
(UTC+00:00)

CZ-4C R/B - Pass Details

Date: 20 January 2021
Orbit: 617 x 1385 km, 63.4° (Epoch: 26 February)

Event Time Altitude Azimuth Distance (km) Brightness Sun altitude
Rises 15:23:07 0° 252° (WSW) 3,126 7.3 -12.2°
Reaches altitude 10° 15:25:28 10° 262° (W) 2,295 5.9 -12.6°
Maximum altitude 15:30:21 37° 329° (NNW) 1,320 3.4 -13.4°
Enters shadow 15:36:08 10° 35° (NE) 2,738 4.4 -14.3°
